Location: Cheyres
(46.8153°N, 6.7877°E)
Time: 04:32:32
(UTC+00:00)

QB50P2 - Pass Details

Date: 25 June 2022
Orbit: 590 x 605 km, 97.9° (Epoch: 13 August)

Event Time Altitude Azimuth Distance (km) Brightness Sun altitude
Rises 00:37:26 0° 18° (NNE) 2,854 ? -18.4°
Reaches altitude 10° 00:39:41 10° 24° (NNE) 1,949 ? -18.3°
Maximum altitude 00:43:47 48° 99° (E) 793 ? -18.1°
Enters shadow 00:45:29 30° 155° (SSE) 1,084 ? -18.0°
